EW9675 Weather Reports


time (UTC)temp
F
wind
direction
speed
knots
gust
knots
rain 1hr
in
rain 24hr
in
rain mn
in
humidity
%
barometer
mb
20260510061025 64 0 0.0 0.0 0.00 0.02 0.01 67 1027.3
20260510060504 64 0 0.0 0.0 0.00 0.02 0.01 67 1027.3
20260510060004 64 0 0.0 0.0 0.00 0.02 0.01 67 1027.2
20260510055504 64 0 0.0 4.3 0.00 0.02 0.01 66 1027.3
20260510055004 64 225 0.9 4.3 0.00 0.02 0.01 66 1027.3
20260510054504 64 217 1.7 4.3 0.00 0.02 0.01 66 1027.4
20260510054025 64 244 2.6 7.0 0.00 0.02 0.01 66 1027.3
20260510053504 64 275 1.7 7.0 0.00 0.02 0.01 66 1027.3
20260510053004 65 298 0.9 4.3 0.00 0.02 0.01 65 1027.3
20260510052524 65 319 0.0 4.3 0.00 0.02 0.01 65 1027.3
20260510052004 65 0 0.0 0.0 0.00 0.02 0.01 65 1027.2
20260510051504 65 201 0.9 4.3 0.00 0.02 0.01 65 1027.3
20260510051004 65 112 0.9 4.3 0.00 0.02 0.01 66 1027.3
20260510050504 65 84 0.9 4.3 0.00 0.02 0.01 67 1027.3
20260510050004 65 111 0.9 4.3 0.00 0.02 0.01 66 1027.3
20260510045504 65 138 0.9 4.3 0.00 0.02 0.01 65 1027.3
20260510045004 66 138 0.0 4.3 0.00 0.02 0.01 65 1027.3
20260510044503 66 137 0.0 4.3 0.00 0.02 0.01 64 1027.3
20260510044004 65 138 0.0 2.6 0.00 0.02 0.01 65 1027.3
20260510043503 65 138 0.0 4.3 0.00 0.02 0.01 66 1027.3
20260510043025 64 138 0.9 4.3 0.00 0.02 0.01 65 1027.3
20260510042504 64 246 0.9 5.2 0.00 0.02 0.01 66 1027.3
20260510042004 64 248 0.9 5.2 0.00 0.02 0.01 66 1027.4
20260510041504 65 221 0.9 4.3 0.00 0.02 0.01 66 1027.4
20260510041004 65 222 0.9 4.3 0.00 0.02 0.01 66 1027.4
20260510040503 65 251 0.9 4.3 0.00 0.02 0.01 67 1027.4
20260510040004 65 125 0.9 2.6 0.00 0.02 0.01 66 1027.5
20260510035504 64 124 0.9 4.3 0.00 0.02 0.01 66 1027.5
20260510035004 64 124 0.0 4.3 0.00 0.02 0.01 67 1027.6
20260510034503 64 0 0.9 0.0 0.00 0.02 0.01 66 1027.7
20260510034003 64 220 1.7 2.6 0.00 0.02 0.01 66 1027.7
20260510033524 64 216 2.6 5.2 0.00 0.02 0.01 66 1027.8
20260510033003 64 227 1.7 5.2 0.00 0.02 0.01 65 1027.8
20260510032504 64 255 0.9 5.2 0.00 0.02 0.01 66 1027.9
20260510032004 64 289 0.9 3.5 0.00 0.02 0.01 65 1027.9
20260510031504 64 285 0.9 3.5 0.00 0.02 0.01 65 1027.8
20260510031004 64 310 0.9 5.2 0.00 0.02 0.01 66 1027.9
20260510030504 64 309 0.9 5.2 0.00 0.02 0.01 65 1028.0
20260510030004 64 333 1.7 4.3 0.00 0.02 0.01 65 1028.1
20260510025503 64 340 1.7 4.3 0.00 0.02 0.01 66 1028.1
20260510025004 65 26 0.9 5.2 0.00 0.02 0.01 64 1028.2
20260510024525 65 39 0.9 5.2 0.00 0.02 0.01 66 1028.2
20260510024024 64 312 0.9 4.3 0.00 0.02 0.01 66 1028.3
20260510023525 64 292 0.0 4.3 0.00 0.02 0.01 66 1028.4
20260510023004 64 334 0.0 3.5 0.00 0.02 0.01 65 1028.5
20260510022504 64 0 0.0 0.0 0.00 0.02 0.01 67 1028.6
20260510022004 64 0 0.0 0.0 0.00 0.02 0.01 66 1028.7
20260510021503 64 0 0.0 0.0 0.00 0.02 0.01 67 1028.7
20260510021024 63 219 0.0 2.6 0.00 0.02 0.01 67 1028.8
20260510020504 63 207 0.0 2.6 0.00 0.02 0.01 67 1028.8
20260510020004 63 179 0.0 3.5 0.00 0.02 0.01 67 1028.9
20260510015504 64 90 0.0 4.3 0.00 0.02 0.01 66 1028.9
20260510015025 63 117 0.0 4.3 0.00 0.02 0.01 67 1029.0
20260510014503 63 143 0.0 2.6 0.00 0.02 0.01 67 1029.1
20260510014025 63 0 0.0 0.0 0.00 0.02 0.01 67 1029.1
20260510013504 63 143 0.0 0.9 0.00 0.02 0.01 67 1029.1
20260510013025 63 157 0.0 2.6 0.00 0.02 0.01 67 1029.1
20260510012504 63 179 0.0 2.6 0.00 0.02 0.01 67 1029.1
20260510012004 63 204 0.0 2.6 0.00 0.02 0.01 69 1029.1
20260510011504 62 204 0.9 3.5 0.00 0.02 0.01 70 1029.1
20260510011003 62 204 0.0 4.3 0.00 0.02 0.01 70 1029.2
20260510010504 62 204 4.3 4.3 0.00 0.02 0.01 70 1029.1
20260510010004 62 204 0.0 2.6 0.00 0.02 0.01 72 1029.2
20260510005504 62 204 0.0 2.6 0.00 0.02 0.01 72 1029.2
20260510005004 61 200 0.0 4.3 0.00 0.02 0.01 72 1029.2
20260510004503 61 194 0.0 4.3 0.00 0.02 0.01 72 1029.2
20260510004003 61 127 0.0 2.6 0.00 0.02 0.01 73 1029.2
20260510003503 61 127 0.0 2.6 0.00 0.02 0.01 73 1029.2
20260510003004 61 127 0.0 0.9 0.00 0.02 0.01 74 1029.2
20260510002525 60 127 0.9 2.6 0.00 0.02 0.01 75 1029.2
20260510002004 60 119 0.9 2.6 0.00 0.02 0.01 75 1029.3
20260510001504 60 110 0.0 3.5 0.00 0.02 0.01 75 1029.2
20260510001003 60 112 0.9 4.3 0.00 0.02 0.01 76 1029.2
20260510000503 60 119 0.9 4.3 0.00 0.02 0.01 77 1029.3
20260510000024 60 116 0.9 2.6 0.00 0.02 0.01 77 1029.3
20260509235504 60 109 0.9 4.3 0.00 0.02 0.01 78 1029.3
20260509235003 60 104 2.6 4.3 0.00 0.02 0.01 78 1029.3
20260509234503 59 96 4.3 7.8 0.00 0.02 0.01 79 1029.3
20260509234003 59 95 5.2 7.8 0.00 0.02 0.01 79 1029.3
20260509233503 59 101 6.1 7.8 0.00 0.02 0.01 79 1029.3
20260509233004 59 101 6.1 11.3 0.00 0.02 0.01 79 1029.2
20260509232503 58 95 5.2 11.3 0.00 0.02 0.01 81 1029.2
20260509232004 58 90 3.5 8.7 0.00 0.02 0.01 84 1029.2
20260509231503 58 93 2.6 8.7 0.00 0.02 0.01 86 1029.1
20260509231003 57 109 2.6 7.0 0.00 0.02 0.01 88 1029.1
20260509230503 57 115 3.5 7.0 0.00 0.02 0.01 90 1029.1
20260509230024 56 98 2.6 7.8 0.00 0.02 0.01 90 1029.1
20260509225503 56 88 0.9 7.8 0.00 0.02 0.01 91 1029.1
20260509225024 56 88 0.0 5.2 0.00 0.02 0.01 91 1029.1
20260509224504 55 110 0.0 2.6 0.00 0.02 0.01 91 1029.1
20260509224004 55 109 0.0 2.6 0.00 0.02 0.01 91 1029.0
20260509223503 55 107 0.0 2.6 0.00 0.02 0.01 91 1029.0
20260509223024 55 107 0.0 2.6 0.00 0.02 0.01 91 1028.9
20260509222504 54 107 0.0 0.9 0.00 0.02 0.01 91 1029.0
20260509222004 54 0 0.0 0.0 0.00 0.02 0.01 91 1028.9
20260509221503 54 16 0.0 2.6 0.00 0.02 0.01 91 1028.8
20260509221024 54 15 0.0 2.6 0.00 0.02 0.01 91 1028.7
20260509220504 54 317 0.0 0.9 0.00 0.02 0.01 91 1028.7
20260509220003 53 122 0.9 0.9 0.00 0.02 0.01 91 1028.7
20260509215504 53 122 0.9 4.3 0.00 0.02 0.01 91 1028.6
20260509215003 53 109 0.9 4.3 0.00 0.02 0.01 91 1028.4
20260509214504 53 56 0.0 3.5 0.00 0.02 0.01 91 1028.4
20260509214004 53 36 0.0 2.6 0.00 0.02 0.01 91 1028.3
20260509213504 53 0 0.0 0.0 0.00 0.02 0.01 91 1028.3
20260509213004 53 0 0.0 0.0 0.00 0.02 0.01 91 1028.2
20260509212504 53 0 0.0 0.0 0.00 0.02 0.01 91 1028.2
20260509212004 53 36 0.0 0.9 0.00 0.02 0.01 91 1028.2
20260509211504 52 36 0.0 0.9 0.00 0.02 0.01 91 1028.2
20260509211004 52 36 0.0 2.6 0.00 0.02 0.01 91 1028.2
20260509210504 52 36 0.0 2.6 0.00 0.02 0.01 91 1028.1
20260509210004 52 36 0.9 4.3 0.00 0.02 0.01 91 1028.0
20260509205504 53 36 2.6 4.3 0.00 0.02 0.01 91 1028.0
20260509205004 53 18 3.5 7.0 0.00 0.02 0.01 91 1028.0
20260509204504 53 13 2.6 7.0 0.00 0.02 0.01 91 1027.9
20260509204004 53 17 2.6 5.2 0.00 0.02 0.01 91 1027.9
20260509203504 53 21 2.6 5.2 0.00 0.02 0.01 91 1027.9
20260509203004 52 22 2.6 5.2 0.01 0.02 0.01 91 1027.9
20260509202525 52 12 2.6 4.3 0.01 0.02 0.01 91 1027.8
20260509202004 52 15 2.6 7.0 0.01 0.02 0.01 91 1027.7
20260509201525 52 24 2.6 7.0 0.01 0.02 0.01 91 1027.7
20260509201004 52 31 0.9 7.0 0.01 0.02 0.01 91 1027.7
20260509200504 51 62 0.0 5.2 0.01 0.02 0.01 91 1027.6
20260509200004 51 84 0.0 2.6 0.01 0.02 0.01 91 1027.5
20260509195504 52 75 0.0 0.9 0.01 0.02 0.01 91 1027.5
20260509195004 52 75 0.9 2.6 0.01 0.02 0.01 91 1027.4
20260509194504 51 75 0.9 4.3 0.01 0.02 0.01 91 1027.4
20260509194004 51 77 0.9 4.3 0.01 0.02 0.01 91 1027.3
20260509193504 51 101 0.9 2.6 0.01 0.02 0.01 91 1027.3
20260509193025 51 105 0.0 2.6 0.00 0.01 0.00 91 1027.3
20260509192525 51 105 0.0 2.6 0.00 0.01 0.00 91 1027.2
20260509192004 51 66 0.0 0.9 0.00 0.01 0.00 91 1027.3
20260509191504 51 0 0.0 0.0 0.00 0.01 0.00 91 1027.3
20260509191004 51 101 0.9 2.6 0.00 0.01 0.00 91 1027.2
20260509190525 51 92 2.6 4.3 0.00 0.01 0.00 90 1027.1
20260509190004 51 90 3.5 5.2 0.00 0.01 0.00 90 1027.1
20260509185504 51 91 4.3 7.0 0.00 0.01 0.00 90 1027.0
20260509185025 51 89 4.3 7.0 0.00 0.01 0.00 90 1027.0
20260509184504 51 91 3.5 7.0 0.00 0.01 0.00 90 1027.0
20260509184004 51 93 1.7 7.0 0.00 0.01 0.00 90 1027.0
20260509183504 52 86 2.6 7.0 0.00 0.01 0.00 90 1027.0
20260509183004 51 88 4.3 7.0 0.00 0.01 0.00 90 1026.9
20260509182504 51 92 5.2 7.8 0.00 0.01 0.00 90 1026.9
20260509182004 52 100 5.2 7.8 0.00 0.01 0.00 90 1026.9
20260509181504 52 106 5.2 7.8 0.00 0.01 0.00 90 1026.8
20260509181004 52 107 6.1 7.8 0.00 0.01 0.00 90 1026.9
20260509180504 52 109 6.1 8.7 0.00 0.01 0.00 90 1026.9
20260509180025 52 109 6.1 8.7 0.00 0.01 0.00 89 1026.8
20260509175525 52 112 6.1 8.7 0.00 0.01 0.00 90 1026.9
20260509175025 52 113 5.2 8.7 0.00 0.01 0.00 89 1026.8
20260509174504 53 110 5.2 7.8 0.00 0.01 0.00 90 1026.8
20260509174004 53 109 6.1 8.7 0.00 0.01 0.00 90 1026.8
20260509173525 53 109 7.0 8.7 0.00 0.01 0.00 90 1026.8
20260509173025 53 109 7.0 8.7 0.00 0.01 0.00 90 1026.9
20260509172503 53 116 7.0 11.3 0.00 0.01 0.00 90 1026.9
20260509172004 53 117 6.1 11.3 0.00 0.01 0.00 90 1026.8
20260509171504 52 110 6.1 8.7 0.00 0.01 0.00 90 1026.8
20260509171004 52 110 5.2 8.7 0.00 0.01 0.00 90 1026.9
20260509170504 52 113 5.2 8.7 0.00 0.01 0.00 89 1026.8
20260509170004 52 113 5.2 8.7 0.00 0.01 0.00 89 1026.9
20260509165525 53 113 5.2 8.7 0.00 0.01 0.00 89 1026.9
20260509165004 53 112 5.2 8.7 0.00 0.01 0.00 90 1027.0
20260509164504 53 112 5.2 8.7 0.00 0.01 0.00 89 1026.9
20260509164003 53 109 5.2 9.6 0.00 0.01 0.00 89 1027.1
20260509163504 53 108 5.2 9.6 0.00 0.01 0.00 89 1027.0
20260509163004 53 110 5.2 7.8 0.00 0.01 0.00 89 1027.1
20260509162504 53 109 6.1 8.7 0.00 0.01 0.00 89 1027.1
20260509162004 53 112 7.0 8.7 0.00 0.01 0.00 89 1027.1
20260509161504 54 112 6.1 11.3 0.00 0.01 0.00 89 1027.2
20260509161004 54 109 6.1 11.3 0.00 0.01 0.00 89 1027.2
20260509160504 54 107 5.2 9.6 0.00 0.01 0.00 89 1027.2
20260509160004 54 107 5.2 8.7 0.00 0.01 0.00 89 1027.2
20260509155504 54 107 5.2 8.7 0.00 0.01 0.00 89 1027.3
20260509155025 54 107 5.2 8.7 0.00 0.01 0.00 89 1027.3
20260509154504 54 110 5.2 7.8 0.00 0.01 0.00 89 1027.3
20260509154003 53 110 5.2 8.7 0.00 0.01 0.00 89 1027.3
20260509153504 53 111 5.2 8.7 0.00 0.01 0.00 89 1027.3
20260509153004 53 116 5.2 8.7 0.00 0.01 0.00 89 1027.4
20260509152503 53 119 6.1 8.7 0.00 0.01 0.00 88 1027.4
20260509152004 53 113 6.1 8.7 0.00 0.01 0.00 89 1027.4
20260509151503 53 108 6.1 8.7 0.00 0.01 0.00 89 1027.4
20260509151004 53 107 5.2 8.7 0.00 0.02 0.00 89 1027.4
20260509150504 53 108 5.2 8.7 0.00 0.02 0.00 89 1027.4
20260509150004 53 109 5.2 8.7 0.00 0.02 0.00 89 1027.4
20260509145504 53 108 5.2 7.8 0.00 0.02 0.00 89 1027.5
20260509145004 53 107 5.2 7.8 0.00 0.02 0.00 89 1027.5
20260509144504 53 106 5.2 7.8 0.00 0.02 0.00 89 1027.5
20260509144004 53 106 5.2 8.7 0.00 0.02 0.00 89 1027.4
20260509143503 53 105 5.2 8.7 0.00 0.02 0.00 89 1027.5
20260509143005 53 104 5.2 8.7 0.00 0.02 0.00 89 1027.5
20260509142525 53 104 5.2 8.7 0.00 0.02 0.02 89 1027.5
20260509142004 53 104 5.2 8.7 0.00 0.02 0.02 89 1027.5
20260509141525 53 104 6.1 8.7 0.00 0.02 0.02 89 1027.5
20260509141004 53 105 6.1 8.7 0.00 0.02 0.02 89 1027.5
20260509140504 53 104 6.1 8.7 0.00 0.02 0.02 89 1027.5
20260509140004 53 103 6.1 8.7 0.00 0.02 0.02 89 1027.5
20260509135503 53 106 5.2 8.7 0.00 0.02 0.02 89 1027.6
20260509135004 54 107 5.2 8.7 0.00 0.02 0.02 89 1027.6
20260509134503 54 105 5.2 7.8 0.00 0.02 0.02 89 1027.6
20260509134003 54 102 6.1 8.7 0.00 0.02 0.02 89 1027.6
20260509133503 53 100 7.0 8.7 0.00 0.02 0.02 89 1027.6
20260509133025 53 103 7.0 8.7 0.00 0.02 0.02 89 1027.6
20260509132503 53 105 7.0 8.7 0.00 0.02 0.02 89 1027.6
20260509132004 53 105 6.1 9.6 0.01 0.02 0.02 89 1027.6
20260509131525 53 104 6.1 9.6 0.01 0.02 0.02 89 1027.7
20260509131004 53 104 5.2 8.7 0.01 0.02 0.02 89 1027.7
20260509130504 53 104 5.2 8.7 0.01 0.02 0.02 89 1027.7
20260509130004 53 105 5.2 8.7 0.01 0.02 0.02 88 1027.8
20260509125504 54 105 5.2 7.8 0.01 0.02 0.02 89 1027.8
20260509125003 54 106 5.2 7.8 0.01 0.02 0.02 89 1027.8
20260509124503 54 107 5.2 8.7 0.01 0.02 0.02 89 1027.8
20260509124004 54 106 6.1 8.7 0.01 0.02 0.02 89 1027.7
20260509123503 54 104 6.1 9.6 0.01 0.02 0.02 89 1027.7
20260509123003 54 103 6.1 9.6 0.01 0.02 0.02 89 1027.7
20260509122503 54 105 6.1 8.7 0.01 0.02 0.02 89 1027.7
20260509122024 54 103 6.1 8.7 0.00 0.01 0.01 89 1027.7
20260509121504 54 103 5.2 8.7 0.00 0.01 0.01 89 1027.8
20260509121003 54 107 5.2 8.7 0.00 0.01 0.01 89 1027.7
20260509120503 54 109 5.2 8.7 0.00 0.01 0.01 89 1027.6
20260509120003 54 105 5.2 8.7 0.00 0.01 0.01 89 1027.7
20260509115503 54 101 5.2 7.8 0.00 0.01 0.01 90 1027.6
20260509115004 54 97 5.2 7.8 0.00 0.01 0.01 90 1027.5
20260509114503 54 97 4.3 7.8 0.00 0.01 0.01 90 1027.6
20260509114004 54 107 5.2 8.7 0.00 0.01 0.01 90 1027.5
20260509113525 54 114 5.2 8.7 0.00 0.01 0.01 90 1027.6
20260509113003 54 118 5.2 8.7 0.00 0.01 0.01 90 1027.5
20260509112503 54 121 4.3 8.7 0.00 0.01 0.01 90 1027.5
20260509112004 54 118 4.3 8.7 0.00 0.01 0.01 90 1027.5
20260509111503 54 107 4.3 7.8 0.00 0.01 0.01 90 1027.6
20260509111003 54 107 4.3 7.0 0.00 0.01 0.01 90 1027.5
20260509110504 53 108 4.3 7.0 0.00 0.01 0.01 89 1027.6
20260509110003 53 105 3.5 7.0 0.00 0.01 0.01 89 1027.6
20260509105524 53 108 3.5 7.0 0.00 0.01 0.01 89 1027.7
20260509105024 53 107 2.6 7.0 0.00 0.01 0.01 89 1027.6
20260509104524 53 98 2.6 5.2 0.00 0.01 0.01 89 1027.6
20260509104003 53 90 2.6 5.2 0.00 0.01 0.01 89 1027.6
20260509103504 53 91 2.6 4.3 0.00 0.01 0.01 88 1027.6
20260509103003 53 95 3.5 4.3 0.00 0.01 0.01 88 1027.6
20260509102503 54 100 4.3 7.0 0.00 0.01 0.01 88 1027.6
20260509102024 54 98 5.2 7.8 0.00 0.01 0.01 88 1027.6
20260509101503 54 94 5.2 8.7 0.00 0.01 0.01 88 1027.5
20260509101003 54 93 5.2 8.7 0.00 0.01 0.01 88 1027.6
20260509100504 54 93 5.2 8.7 0.00 0.01 0.01 87 1027.6
20260509100024 55 95 5.2 7.8 0.00 0.01 0.01 87 1027.6
20260509095525 55 95 5.2 7.8 0.00 0.01 0.01 87 1027.6
20260509095003 55 94 5.2 7.8 0.00 0.01 0.01 87 1027.5
20260509094503 55 95 5.2 7.8 0.00 0.01 0.01 86 1027.5
20260509094004 56 97 4.3 7.0 0.00 0.01 0.01 86 1027.6
20260509093503 56 97 4.3 7.0 0.00 0.01 0.01 86 1027.5
20260509093003 56 97 4.3 7.0 0.00 0.01 0.01 86 1027.5
20260509092504 56 97 4.3 5.2 0.00 0.01 0.01 86 1027.5
20260509092004 56 99 3.5 5.2 0.00 0.01 0.01 86 1027.5
20260509091503 56 103 3.5 5.2 0.00 0.01 0.01 85 1027.5
20260509091004 57 106 3.5 5.2 0.00 0.01 0.01 85 1027.5
20260509090503 57 102 3.5 5.2 0.00 0.01 0.01 85 1027.5
20260509090004 57 106 2.6 5.2 0.00 0.01 0.01 84 1027.5
20260509085525 58 120 2.6 5.2 0.00 0.01 0.01 84 1027.5
20260509085004 58 127 1.7 4.3 0.00 0.01 0.01 84 1027.4
20260509084504 58 128 0.9 4.3 0.00 0.01 0.01 83 1027.4
20260509084004 59 128 0.0 4.3 0.00 0.01 0.01 83 1027.4
20260509083504 59 127 0.0 3.5 0.00 0.01 0.01 83 1027.3
20260509083004 60 124 0.0 2.6 0.00 0.01 0.01 83 1027.2
20260509082504 60 125 0.0 2.6 0.00 0.01 0.01 83 1027.2
20260509082025 61 119 0.0 2.6 0.00 0.01 0.01 84 1027.1
20260509081525 61 201 0.0 4.3 0.00 0.01 0.01 84 1027.0
20260509081004 62 203 1.7 4.3 0.00 0.01 0.01 84 1027.1
20260509080525 62 198 2.6 7.0 0.00 0.01 0.01 83 1027.0
20260509080004 62 200 3.5 7.0 0.00 0.01 0.01 83 1027.0
20260509075504 62 200 2.6 7.0 0.00 0.01 0.01 83 1027.0
20260509075004 62 203 2.6 7.8 0.00 0.01 0.01 83 1026.9
20260509074504 62 212 2.6 7.8 0.00 0.01 0.01 82 1027.0
20260509074004 62 210 3.5 7.0 0.00 0.01 0.01 82 1027.0
20260509073504 62 203 3.5 8.7 0.00 0.01 0.01 82 1027.0
20260509073025 62 201 3.5 8.7 0.00 0.01 0.01 81 1027.0
20260509072504 62 200 3.5 8.7 0.00 0.01 0.01 81 1026.9
20260509072004 62 208 3.5 8.7 0.00 0.01 0.01 81 1026.9
20260509071504 62 216 3.5 7.8 0.00 0.01 0.01 81 1026.9
20260509071004 62 215 4.3 8.7 0.00 0.01 0.01 81 1026.9
20260509070504 63 223 4.3 8.7 0.00 0.01 0.01 80 1026.9
20260509070004 63 223 4.3 8.7 0.00 0.01 0.01 80 1026.9
20260509065504 63 208 4.3 12.2 0.00 0.01 0.01 79 1026.9
20260509065004 63 209 3.5 12.2 0.00 0.01 0.01 79 1026.9
20260509064504 64 223 3.5 8.7 0.00 0.01 0.01 79 1026.8
20260509064004 64 236 5.2 7.8 0.00 0.01 0.01 79 1026.9
20260509063504 64 222 5.2 8.7 0.00 0.01 0.01 79 1026.9
20260509063004 64 221 5.2 8.7 0.00 0.01 0.01 79 1026.9
20260509062525 63 234 4.3 8.7 0.00 0.01 0.01 79 1026.9
20260509062025 63 245 4.3 8.7 0.00 0.01 0.01 79 1026.9
20260509061504 63 249 4.3 8.7 0.00 0.01 0.01 79 1026.9